Weather Roundup
Issued by NWS Corpus Christi, TX

Home | Current Version | Previous Version | Text Only | Print | Product List | Glossary On
Versions: 1 2 3 4 5 6 7 8 9 10 11 12 13 14 15 16 17 18 19 20 21 22 23 24 25 26 27 28 29 30 31 32 33 34 35 36 37 38 39 40 41 42 43 44 45 46 47 48 49 50
000
ASUS44 KCRP 031710
HRRCRP

SOUTH TEXAS REGIONAL WEATHER ROUNDUP
NATIONAL WEATHER SERVICE CORPUS CHRISTI TX
1200 PM CDT THU SEP 03 2015


TXZ229>244-031800-
...CORPUS CHRISTI AREA OBSERVATIONS...

CITY           SKY/WX    TMP DP  RH WIND       PRES   REMARKS
CORPUS CHRISTI PTSUNNY   89  72  56 VRB3      29.92F HX  96
NAS CORPUS CHR MOSUNNY   87  76  69 NE8       29.93F HX  97
ROCKPORT       SUNNY     85  75  72 E6        29.93F HX  93
KINGSVILLE NAS PTSUNNY   91  76  61 CALM      29.92F HX 103
ALICE          MOSUNNY   91  72  53 VRB5      29.92F HX  98
FALFURRIAS     MOSUNNY   90  71  53 W3        29.91F HX  96
$$

...VICTORIA AREA OBSERVATIONS...

CITY           SKY/WX    TMP DP  RH WIND       PRES   REMARKS
VICTORIA       PTSUNNY   85  73  67 VRB3      29.95S HX  91
BEEVILLE       FAIR      89  74  62 N3        29.94F HX  97
PLEASANTON     SUNNY     91  65  42 NE5       29.96S HX  92
SAN ANTONIO    PTSUNNY   86  69  56 VRB6      29.98S HX  90
$$

...LAREDO AREA OBSERVATIONS...

CITY           SKY/WX    TMP DP  RH WIND       PRES   REMARKS
LAREDO         SUNNY     93  68  44 E9        29.94F HX  97
COTULLA        MOSUNNY   89  71  55 SE6       29.94F HX  95
DEL RIO        MOSUNNY   90  71  53 SE8       29.95F HX  96
MCALLEN        MOSUNNY   91  74  57 S7        29.91F HX 100
HEBBRONVILLE   NOT AVBL
$$

...OTHER TEXAS OBSERVATIONS...

CITY           SKY/WX    TMP DP  RH WIND       PRES   REMARKS
BROWNSVILLE    HVY RAIN  81  78  91 S6        29.91F FOG
HOUSTON        MOSUNNY   86  74  67 E7        29.97F HX  94
COL. STATION   CLOUDY    85  71  63 CALM      29.97F HX  90
AUSTIN         PTSUNNY   85  68  56 CALM      29.97S
WACO           MOSUNNY   86  69  56 SE6       29.99S HX  90
FORT WORTH     PTSUNNY   90  63  40 S8        29.98F HX  91
WICHITA FALLS  MOSUNNY   90  64  42 S12       29.97F HX  91
LUBBOCK        MOSUNNY   85  58  39 SW15G21   30.05S
EL PASO        CLOUDY    85  51  31 CALM      30.07F
$$

...MARINE OBSERVATIONS...

STATION/POSITION TIME  SKY/WX   TEMP    WIND        PRES    VSBY  WAVE   SWELL
                                AIR SEA DIR/SP/G                  HT/PER HT/PER
                 (UTC)          (F)     (DEG/KT/KT) (MB)    (MI)  (FT/S) (FT/S)
PORT ARANSAS     1700            81 85   20/  8/  9 1014.2F
BUOY 90 E PORT A 1650            80 84   20/  6/  6 1014.2F         3/ 6   2/ 6
BUOY 45 SE BAFFI 1650            84 85  180/  4/  4 1013.4F         2/ 6   2/ 6
BUOY 200 E PT IS 1650            80 85  230/ 19/ 23 1014.4F         3/ 6
BUOY 15 E GALVES 1650            81 85   80/ 14/ 17 1014.8F         2/ 5
$$


USA.gov is the U.S. government's official web portal to all federal, state and local government web resources and services.